Time,TemperatureF,DewpointF,PressureIn,WindDirection,WindDirectionDegrees,WindSpeedMPH,WindSpeedGustMPH,Humidity,HourlyPrecipIn,Conditions,Clouds,dailyrainin,SolarRadiationWatts/m^2,SoftwareType,DateUTC
2013-10-03 00:02:00,50.0,38.0,-100.00,SW,228,0.0,0.0,64,0.00,,,0.00,0.000000,,2013-10-03 07:02:00,
2013-10-03 00:11:00,50.0,38.0,-100.00,SW,228,0.0,0.0,64,0.00,,,0.00,0.000000,,2013-10-03 07:11:00,
2013-10-03 01:42:00,44.0,27.0,-100.00,SSW,192,0.0,0.0,50,0.00,,,0.00,0.000000,,2013-10-03 08:42:00,
2013-10-03 01:52:00,44.0,27.0,-100.00,SSW,192,0.0,0.0,50,0.00,,,0.00,0.000000,,2013-10-03 08:52:00,
2013-10-03 02:02:00,44.0,27.0,-100.00,SSW,192,0.0,0.0,50,0.00,,,0.00,0.000000,,2013-10-03 09:02:00,
2013-10-03 02:43:00,44.0,23.0,-100.00,SSW,195,0.0,0.0,44,-99.99,,,0.00,0.000000,,2013-10-03 09:43:00,
2013-10-03 06:42:00,42.0,27.0,-100.00,SW,218,0.0,3.0,54,0.00,,,0.00,0.000000,,2013-10-03 13:42:00,
2013-10-03 08:43:00,57.0,39.0,-100.00,East,84,0.0,0.0,50,0.00,,,0.00,240.000000,,2013-10-03 15:43:00,
2013-10-03 08:53:00,57.0,39.0,-100.00,East,84,0.0,0.0,50,0.00,,,0.00,240.000000,,2013-10-03 15:53:00,
2013-10-03 09:03:00,57.0,39.0,-100.00,East,84,0.0,0.0,50,0.00,,,0.00,240.000000,,2013-10-03 16:03:00,
2013-10-03 09:12:00,57.0,39.0,-100.00,East,84,0.0,0.0,50,0.00,,,0.00,240.000000,,2013-10-03 16:12:00,
2013-10-03 11:52:00,70.0,42.0,-100.00,SSE,151,3.0,11.0,36,0.00,,,0.00,915.000000,,2013-10-03 18:52:00,
2013-10-03 12:01:00,70.0,42.0,-100.00,SSE,151,3.0,11.0,36,0.00,,,0.00,915.000000,,2013-10-03 19:01:00,
2013-10-03 12:11:00,70.0,42.0,-100.00,SSE,151,3.0,11.0,36,0.00,,,0.00,915.000000,,2013-10-03 19:11:00,
2013-10-03 14:12:00,72.0,44.0,-100.00,SW,231,5.0,14.0,37,-99.99,,,0.00,1056.000000,,2013-10-03 21:12:00,
2013-10-03 14:43:00,72.0,42.0,-100.00,SW,230,8.0,13.0,34,0.00,,,0.00,1002.000000,,2013-10-03 21:43:00,
2013-10-03 14:54:00,72.0,42.0,-100.00,SW,230,8.0,13.0,34,0.00,,,0.00,1002.000000,,2013-10-03 21:54:00,
2013-10-03 15:04:00,72.0,42.0,-100.00,SW,230,8.0,13.0,34,0.00,,,0.00,1002.000000,,2013-10-03 22:04:00,
2013-10-03 15:13:00,72.0,42.0,-100.00,SW,230,8.0,13.0,34,0.00,,,0.00,1002.000000,,2013-10-03 22:13:00,
2013-10-03 15:43:00,73.0,43.0,-100.00,SW,220,9.0,16.0,34,0.00,,,0.00,876.000000,,2013-10-03 22:43:00,
2013-10-03 15:54:00,73.0,43.0,-100.00,SW,220,9.0,16.0,34,0.00,,,0.00,876.000000,,2013-10-03 22:54:00,
2013-10-03 16:03:00,73.0,43.0,-100.00,SW,220,9.0,16.0,34,0.00,,,0.00,876.000000,,2013-10-03 23:03:00,
2013-10-03 16:43:00,71.0,50.0,-100.00,SW,217,5.0,15.0,48,-99.99,,,0.00,674.000000,,2013-10-03 23:43:00,
2013-10-03 17:42:00,68.0,51.0,-100.00,SW,219,3.0,12.0,55,-99.99,,,0.00,408.000000,,2013-10-04 00:42:00,
2013-10-03 18:42:00,56.0,50.0,-100.00,West,274,5.0,9.0,79,-99.99,,,0.00,59.000000,,2013-10-04 01:42:00,
2013-10-03 18:52:00,56.0,50.0,-100.00,West,274,5.0,9.0,79,-99.99,,,0.00,59.000000,,2013-10-04 01:52:00,
2013-10-03 19:02:00,56.0,50.0,-100.00,West,274,5.0,9.0,79,-99.99,,,0.00,59.000000,,2013-10-04 02:02:00,
2013-10-03 19:12:00,56.0,50.0,-100.00,West,274,5.0,9.0,79,-99.99,,,0.00,59.000000,,2013-10-04 02:12:00,
2013-10-03 19:43:00,55.0,51.0,-100.00,WNW,284,0.0,7.0,86,0.00,,,0.00,2.000000,,2013-10-04 02:43:00,
2013-10-03 19:52:00,55.0,51.0,-100.00,WNW,284,0.0,7.0,86,0.00,,,0.00,2.000000,,2013-10-04 02:52:00,
2013-10-03 20:02:00,55.0,51.0,-100.00,WNW,284,0.0,7.0,86,0.00,,,0.00,2.000000,,2013-10-04 03:02:00,
2013-10-03 20:12:00,55.0,51.0,-100.00,WNW,284,0.0,7.0,86,0.00,,,0.00,2.000000,,2013-10-04 03:12:00,
2013-10-03 20:44:00,54.0,49.0,-100.00,West,274,0.0,4.0,83,0.00,,,0.00,0.000000,,2013-10-04 03:44:00,
2013-10-03 21:00:00,54.0,49.0,-100.00,West,274,0.0,4.0,83,0.00,,,0.00,0.000000,,2013-10-04 04:00:00,
2013-10-03 21:17:00,48.0,45.0,-100.00,East,88,2.0,7.0,89,0.00,,,0.00,0.000000,,2013-10-04 04:17:00,
2013-10-03 21:51:00,48.0,45.0,-100.00,East,88,2.0,7.0,89,0.00,,,0.00,0.000000,,2013-10-04 04:51:00,
2013-10-03 22:07:00,48.0,45.0,-100.00,East,88,2.0,7.0,89,0.00,,,0.00,0.000000,,2013-10-04 05:07:00,
2013-10-03 22:49:00,46.0,44.0,-100.00,NNE,21,1.0,8.0,91,0.00,,,0.00,0.000000,,2013-10-04 05:49:00,
2013-10-03 22:58:00,46.0,44.0,-100.00,NNE,21,1.0,8.0,91,0.00,,,0.00,0.000000,,2013-10-04 05:58:00,
2013-10-03 23:06:00,46.0,44.0,-100.00,NNE,21,1.0,8.0,91,0.00,,,0.00,0.000000,,2013-10-04 06:06:00,
2013-10-03 23:16:00,46.0,44.0,-100.00,NNE,21,1.0,8.0,91,0.00,,,0.00,0.000000,,2013-10-04 06:16:00,
2013-10-03 23:48:00,46.0,42.0,-100.00,SSW,202,0.0,0.0,87,0.00,,,0.00,0.000000,,2013-10-04 06:48:00,
2013-10-03 23:57:00,46.0,42.0,-100.00,SSW,202,0.0,0.0,87,0.00,,,0.00,0.000000,,2013-10-04 06:57:00,